Weather History for Fresno, CA

Change the Weather History Date:

Wednesday, January 25, 2012

  Actual Average Record
Temperature  
Mean Temperature 49 °F 48 °F  
Max Temperature 60 °F 56 °F 75 °F (2014)
Min Temperature 38 °F 39 °F 24 °F (1949)
Degree Days  
Heating Degree Days 16    
Month to date heating degree days 407  
Since 1 July heating degree days 1369  
Cooling Degree Days 0    
Month to date cooling degree days 0  
Year to date cooling degree days 0  
Moisture  
Dew Point 42 °F    
Average Humidity 79    
Maximum Humidity 100    
Minimum Humidity 57    
Precipitation  
Precipitation 0.00 in 0.07 in 2.21 in (1969)
Month to date precipitation 1.37 1.76  
Year to date precipitation 1.37 1.76  
Since 1 July precipitation 2.94 5.42  
Snow  
Snow 0.00 in - - ()
Month to date snowfall 0.0  
Since 1 July snowfall 0.0  
Snow Depth 0.00 in    
Sea Level Pressure  
Sea Level Pressure 30.41 in    
Wind  
Wind Speed 1 mph (SSW)    
Max Wind Speed 7 mph    
Max Gust Speed -    
Visibility 5 miles    
Events      
T = Trace of Precipitation, MM = Missing Value Source: NWS Daily Summary

Daily Weather History Graph

Daily Weather History Graph

Search for Another Location

Airport:

Trip Planner

Search our weather history database for the weather conditions in past years. The results will help you decide how hot, cold, wet, or windy it might be!

Date:

Astronomy

Jan. 25, 2012 Rise Set
Actual Time 7:06 AM PST 5:16 PM PST
Civil Twilight 6:38 AM PST 5:44 PM PST
Nautical Twilight 6:07 AM PST 6:15 PM PST
Astronomical Twilight 5:36 AM PST 6:46 PM PST
Moon 8:13 AM PST (1/25) 8:08 PM PST (1/25)
Length of Visible Light 11h 05m
Length of Day
10h 10m
Waxing Crescent, 7% of the Moon is Illuminated
Jan 25
Waxing Crescent
Jan 30
First Quarter
Feb 7
Full
Feb 14
Last Quarter
Feb 21
New

Hourly Weather History & Observations

Time (PST) Temp. Windchill Dew Point Humidity Pressure Visibility Wind Dir Wind Speed Gust Speed Precip Events Conditions
12:53 AM 43.0 °F - 41.0 °F 93% 30.44 in 3.0 mi Calm Calm - N/A   Clear
1:53 AM 42.1 °F - 39.9 °F 92% 30.46 in 3.0 mi Calm Calm - N/A   Clear
2:53 AM 41.0 °F - 39.0 °F 93% 30.44 in 2.5 mi Calm Calm - N/A   Clear
3:53 AM 39.9 °F - 37.9 °F 93% 30.43 in 1.0 mi Calm Calm - N/A   Clear
4:15 AM 39.2 °F - 37.4 °F 93% 30.44 in 1.0 mi Calm Calm - N/A   Mist
4:30 AM 39.2 °F - 37.4 °F 93% 30.44 in 1.5 mi Calm Calm - N/A   Partly Cloudy
4:53 AM 41.0 °F - 37.4 °F 87% 30.43 in 2.0 mi Calm Calm - N/A   Clear
5:53 AM 39.9 °F - 39.0 °F 97% 30.43 in 1.5 mi Calm Calm - N/A   Clear
6:02 AM 39.2 °F - 39.2 °F 100% 30.43 in 2.0 mi Calm Calm - N/A   Clear
6:32 AM 39.2 °F - 37.4 °F 93% 30.44 in 3.0 mi Calm Calm - N/A   Clear
6:53 AM 39.0 °F - 37.0 °F 93% 30.44 in 3.0 mi Calm Calm - N/A   Partly Cloudy
7:53 AM 39.9 °F - 39.0 °F 97% 30.45 in 4.0 mi Calm Calm - N/A   Partly Cloudy
8:53 AM 46.0 °F - 43.0 °F 89% 30.46 in 5.0 mi Calm Calm - N/A   Clear
9:53 AM 51.1 °F - 45.0 °F 80% 30.48 in 10.0 mi Calm Calm - N/A   Clear
10:53 AM 55.0 °F - 46.0 °F 72% 30.46 in 10.0 mi Calm Calm - N/A   Clear
11:53 AM 57.0 °F - 44.1 °F 62% 30.43 in 10.0 mi Calm Calm - N/A   Partly Cloudy
12:53 PM 57.0 °F - 44.1 °F 62% 30.40 in 9.0 mi SSW 6.9 mph - N/A   Scattered Clouds
1:49 PM 57.2 °F - 44.6 °F 63% 30.37 in 7.0 mi South 4.6 mph - N/A   Mostly Cloudy
1:53 PM 57.9 °F - 45.0 °F 62% 30.38 in 7.0 mi Variable 3.5 mph - N/A   Mostly Cloudy
2:02 PM 57.2 °F - 44.6 °F 63% 30.37 in 7.0 mi Variable 3.5 mph - N/A   Scattered Clouds
2:53 PM 59.0 °F - 44.1 °F 58% 30.37 in 7.0 mi Calm Calm - N/A   Scattered Clouds
3:53 PM 59.0 °F - 44.1 °F 58% 30.35 in 7.0 mi WNW 4.6 mph - N/A   Scattered Clouds
4:53 PM 57.9 °F - 44.1 °F 60% 30.35 in 7.0 mi Calm Calm - N/A   Scattered Clouds
5:53 PM 55.9 °F - 45.0 °F 67% 30.35 in 8.0 mi Calm Calm - N/A   Scattered Clouds
6:53 PM 53.1 °F - 46.0 °F 77% 30.37 in 7.0 mi Calm Calm - N/A   Scattered Clouds
7:53 PM 51.1 °F - 45.0 °F 80% 30.37 in 6.0 mi Calm Calm - N/A   Haze
8:53 PM 48.9 °F - 45.0 °F 86% 30.37 in 5.0 mi Calm Calm - N/A   Partly Cloudy
9:53 PM 48.0 °F - 44.1 °F 86% 30.38 in 4.0 mi Calm Calm - N/A   Clear
10:53 PM 46.0 °F - 43.0 °F 89% 30.38 in 3.0 mi Calm Calm - N/A   Clear
11:53 PM 46.0 °F 44.8 °F 42.1 °F 86% 30.38 in 4.0 mi ENE 3.5 mph - N/A   Clear